STARLINK-3744, 52304

Orbit data source: Space-Track

STARLINK-3744, 52304 is a payload satellite owned by SpaceX/Seattle (US) in LEO that was launched on Thu, 21 Apr 2022 UTC via an FALCON 9 launch vehicle from the Air Force Eastern Test Range (AFETR). Payload-class satellites include a variety of spacecraft equipped with specific instruments for various scientific and technological missions. These include communications satellites like Starlink; space stations such as the ISS; scientific satellites like the Hubble; Earth observation satellites from companies like Planet Labs, Umbra, and HawkEye 360; GPS; miniature CubeSats for education and research; and military/defense satellites.

Loading next visibility...
Identifier
52304, 2022-041AV
Orbit
LEO
Country
Flag of USUS
Related business
Manufacturer
SpaceX/Seattle
Mission
Operational Commercial Communications
Bus & Motor
STARLINK, Unknown motor
Mass
297 kg wet, ~275 kg dry
Launch date (UTC)
2022-04-21 (4 years ago)
Launch vehicle
FALCON 9
Launch site
Air Force Eastern Test Range (AFETR)
Object type
Payload
Rocket body
Debris
Shape & HBR
Box + 1 Pan, 10.1 m
Radar Cross Section
11.087 m², Large (>1 m²)

Expand to show TLE details & history
Last TLE update: 11 hours ago

TLE from 11 hours ago
0 STARLINK-3744
1 52304U 22041AV  26236.88705440  .00008107  00000-0  25080-3 0  9992
2 52304  53.1600  46.4724 0001184  90.4676 269.6463 15.34403309240132
Epoch: 2026-08-24T21:17Z
TLE epoch observation values (Epoch: 2026-08-24T21:17:21.500Z)
Latitude
0.00005°
Longitude
113.97054°
Altitude
463.6 km
Speed
7.636 km/s
True Right ascension
03h 05m 53s
True Declination
0° 00' 00"
Sunlit
Object was in daylight at epoch
Visualization orbit readout
Latitude
Unknown
Longitude
Unknown
Altitude
Unknown
Speed
Unknown
Apparent Right ascension
Unknown
Apparent Declination
Unknown
Sunlit
N/A
Visualization observer readout
Local Sidereal Time
23:02:56
Azimuth
Unknown
Elevation
Unknown
Doppler factor
Unknown
Orbital elements
Apogee altitude
463.76 km
Perigee altitude
462.14 km
Semi-major axis
6,841.087 km
Eccentricity
0.00012
Inclination
53.16°
RAAN
46.4724°
Arg. of periapsis
90.4676°
True anomaly
269.63273°
Mean anomaly
269.6463°
Eccentric anomaly
269.63952°
Mean motion
3.8358 °/min
Orbital period
93.85 mins
BSTAR
0.0002508
Loading maneuver chart data...
Computing Atmospheric mass density...

Documentation

Showing up to 5 results
|